Weather History for Jacksonville NAS, FL

Change the Weather History Date:

Friday, December 7, 2012

  Actual Average Record
Temperature  
Mean Temperature 62 °F -  
Max Temperature 63 °F 66 °F 84 °F (2013)
Min Temperature 60 °F 50 °F 32 °F (2010)
Degree Days  
Heating Degree Days 4    
Growing Degree Days 12 (Base 50)    
Moisture  
Dew Point 58 °F    
Average Humidity 88    
Maximum Humidity 94    
Minimum Humidity 82    
Precipitation  
Precipitation 0.00 in - - ()
Sea Level Pressure  
Sea Level Pressure 30.01 in    
Wind  
Wind Speed 9 mph (NNE)    
Max Wind Speed 14 mph    
Max Gust Speed -    
Visibility 4 miles    
Events      
Averages and records for this station are not official NWS values.
T = Trace of Precipitation, MM = Missing Value Source: NWS Daily Summary

Daily Weather History Graph

Daily Weather History Graph

Search for Another Location

Airport:

Trip Planner

Search our weather history database for the weather conditions in past years. The results will help you decide how hot, cold, wet, or windy it might be!

Date:

Astronomy

Dec. 07, 2012 Rise Set
Actual Time 7:10 AM EST 5:26 PM EST
Civil Twilight 6:44 AM EST 5:52 PM EST
Nautical Twilight 6:14 AM EST 6:22 PM EST
Astronomical Twilight 5:45 AM EST 6:51 PM EST
Moon 12:51 AM EST (12/7) 1:01 PM EST (12/7)
Length of Visible Light 11h 08m
Length of Day
10h 15m
Last Quarter, 39% of the Moon is Illuminated
Dec 7
Last Quarter
Dec 13
New
Dec 20
First Quarter
Dec 28
Full
Jan 4
Last Quarter

Hourly Weather History & Observations

Time (EST) Temp. Dew Point Humidity Pressure Visibility Wind Dir Wind Speed Gust Speed Precip Events Conditions
12:29 AM 62.6 °F 60.8 °F 94% 30.03 in 1.5 mi North 12.7 mph - N/A   Overcast
12:53 AM 62.1 °F 60.1 °F 93% 30.01 in 1.0 mi North 12.7 mph - N/A   Overcast
1:53 AM 62.1 °F 60.1 °F 93% 30.01 in 1.5 mi North 12.7 mph - N/A   Overcast
2:53 AM 62.1 °F 60.1 °F 93% 30.01 in 2.0 mi North 12.7 mph - N/A   Overcast
3:53 AM 61.0 °F 59.0 °F 93% 29.99 in 2.5 mi North 12.7 mph - N/A   Overcast
4:53 AM 61.0 °F 59.0 °F 93% 29.99 in 2.0 mi North 13.8 mph - N/A   Overcast
5:53 AM 61.0 °F 57.9 °F 90% 30.00 in 3.0 mi North 13.8 mph - N/A   Overcast
6:53 AM 61.0 °F 57.9 °F 90% 30.01 in 3.0 mi North 11.5 mph - N/A   Overcast
7:53 AM 60.1 °F 57.0 °F 90% 30.04 in 3.0 mi North 11.5 mph - N/A   Overcast
8:53 AM 60.1 °F 57.0 °F 90% 30.04 in 3.0 mi NNE 8.1 mph - N/A   Overcast
9:53 AM 60.1 °F 57.0 °F 90% 30.05 in 5.0 mi North 6.9 mph - N/A   Overcast
10:53 AM 62.1 °F 57.0 °F 84% 30.06 in 5.0 mi North 5.8 mph - N/A   Overcast
11:53 AM 62.1 °F 57.9 °F 86% 30.04 in 5.0 mi NNW 5.8 mph - N/A   Overcast
12:10 PM 62.6 °F 57.2 °F 82% 30.04 in 5.0 mi North 8.1 mph - N/A   Overcast
12:53 PM 62.1 °F 57.9 °F 86% 30.01 in 5.0 mi Calm Calm - N/A   Overcast
1:53 PM 63.0 °F 57.9 °F 84% 29.99 in 5.0 mi NNW 8.1 mph - N/A   Overcast
2:53 PM 62.1 °F 57.9 °F 86% 29.98 in 5.0 mi North 5.8 mph - N/A   Overcast
3:53 PM 63.0 °F 57.9 °F 84% 29.98 in 6.0 mi NNE 4.6 mph - N/A   Overcast
4:53 PM 63.0 °F 57.9 °F 84% 29.98 in 6.0 mi Calm Calm - N/A   Overcast
5:53 PM 63.0 °F 57.9 °F 84% 29.99 in 6.0 mi Calm Calm - N/A   Overcast
6:53 PM 63.0 °F 59.0 °F 87% 30.00 in 6.0 mi ENE 4.6 mph - N/A   Overcast
7:53 PM 62.1 °F 57.9 °F 86% 30.01 in 6.0 mi East 5.8 mph - N/A   Overcast
8:53 PM 61.0 °F 57.0 °F 87% 30.02 in 6.0 mi NNE 6.9 mph - N/A   Overcast
9:53 PM 61.0 °F 57.0 °F 87% 30.03 in 7.0 mi Variable 4.6 mph - N/A   Overcast
10:53 PM 61.0 °F 55.9 °F 83% 30.03 in 8.0 mi NE 5.8 mph - N/A   Overcast
11:53 PM 60.1 °F 55.9 °F 86% 30.04 in 9.0 mi Calm Calm - N/A   Overcast